Location: Unspecified
(0.0000°N, 0.0000°E)
Time: 04:11:43
(UTC+00:00)

Vanguard 1 - Pass Details

Date: 11 December 2023
Orbit: 653 x 3826 km, 34.3° (Epoch: 22 February)

Event Time Altitude Azimuth Distance (km) Brightness Sun altitude
Rises 14:06:54 0° 263° (W) 3,434 13.4 50.2°
Reaches altitude 10° 14:09:18 10° 275° (W) 2,729 13.0 49.7°
Maximum altitude 14:15:03 31° 336° (NNW) 2,179 12.1 48.6°
Drops below altitude 10° 14:24:19 10° 33° (NNE) 4,475 13.1 46.7°
Sets 14:29:39 0° 42° (NE) 6,072 13.7 45.6°
